CAPE
61 174 117 1 1 1 1 32 29 19 13 7 6 4 0 0 0 0 4 12 9 19 17 58 60 84 72 52 48 45 36 16 10 4 3 6 7 9 14 9 5 6 12
140 167 55 0 2 6 0 6 6 4 6 2 2 1 1 6 8 5 5 9 16 23 29 45 49 64 59 44 10 2 1 0 0 0 2 9 9 14 12 15 7 11 11
179 144 40 0 1 2 3 6 5 8 5 4 2 2 5 7 6 28 12 22 9 13 28 48 57 56 25 9 8 2 0 0 0 0 0 0 0 9 14 8 17 16 11
188 105 76 3 0 7 3 4 4 5 9 4 9 10 8 2 0 4 55 28 13 6 24 45 62 75 24 7 3 0 0 0 0 0 0 0 0 6 6 13 10 7 6
139 108 71 0 3 3 9 4 4 8 1 4 0 6 3 22 3 26 47 21 15 18 7 46 63 63 54 11 0 0 0 0 0 0 0 0 0 5 6 7 11 7 10
106 87 20 1 4 6 8 8 7 2 13 10 0 5 31 25 39 19 37 22 7 23 7 52 67 69 56 27 1 0 0 0 0 0 0 0 0 7 10 6 11 10 6
117 67 18 2 5 5 5 8 3 4 25 36 23 12 37 46 30 31 48 35 29 45 40 18 64 67 52 27 2 0 0 0 0 0 0 0 2 8 7 10 8 8 7
115 81 27 1 7 7 5 4 8 7 14 31 29 34 25 27 19 24 46 33 30 44 42 31 60 38 41 29 11 0 0 0 0 0 0 0 6 7 9 10 10 5 6
143 98 37 4 5 8 7 3 7 0 5 4 38 26 11 0 0 30 22 28 23 22 11 26 59 39 49 36 1 0 0 0 0 0 0 3 8 8 9 10 5 5 5
184 104 54 16 1 5 5 2 1 5 2 0 22 11 9 0 11 32 25 34 28 32 20 29 27 34 39 18 2 0 0 0 0 0 0 1 8 10 6 9 5 5 3
255 141 85 20 0 0 0 3 3 4 0 0 9 6 0 0 21 24 26 28 25 31 15 6 32 32 31 13 5 2 0 0 1 0 0 1 8 10 5 5 2 4 3
136 190 92 26 4 0 0 1 1 0 0 0 0 0 0 0 18 18 4 10 5 4 0 0 0 0 1 4 8 3 3 0 0 1 0 4 6 9 4 5 6 5 2
98 139 95 26 16 0 0 4 3 0 0 0 0 0 0 0 0 0 0 1 0 0 0 0 0 0 0 0 0 0 0 1 0 0 0 5 7 8 8 7 6 5 2
171 118 113 39 25 3 0 3 0 0 0 0 0 0 0 0 0 0 0 0 0 0 0 0 0 0 0 0 0 0 2 1 0 0 0 2 6 7 6 8 9 5 3
193 144 137 78 34 8 0 0 0 0 1 0 0 0 0 0 0 0 0 0 0 0 0 0 0 0 0 0 0 0 0 0 0 0 0 1 1 4 7 7 2 5 3
212 200 206 140 68 19 0 0 0 0 1 0 0 0 0 0 0 0 0 0 0 0 0 0 0 0 0 0 0 0 0 0 0 0 0 0 0 5 8 4 4 7 4
285 320 260 153 86 35 14 0 0 0 0 0 1 0 0 0 0 0 0 0 0 0 0 0 0 0 0 0 0 0 0 0 0 0 0 0 0 0 0 6 4 4 5
405 324 229 204 67 31 18 6 0 0 0 0 0 0 0 0 0 0 0 0 0 0 0 0 0 0 0 0 0 0 0 0 0 0 0 0 0 0 0 0 6 4 7
264 332 349 247 78 25 13 12 3 1 0 0 0 0 0 0 0 0 0 0 0 0 0 0 0 0 0 0 0 0 0 0 0 0 0 0 0 0 0 0 0 0 1
162 239 318 331 43 13 21 0 0 0 1 0 0 0 1 0 0 0 0 0 0 0 0 0 0 0 0 0 0 0 0 0 0 0 0 0 0 0 0 0 0 0 0
90 118 175 214 187 0 4 23 1 0 1 0 0 0 0 0 0 0 0 0 0 0 0 0 0 0 0 0 0 0 0 0 0 0 0 0 0 0 0 0 0 0 0
37 119 103 160 166 17 6 27 23 7 1 0 0 0 0 0 0 0 0 0 3 1 0 0 0 0 0 0 0 0 0 0 0 0 0 0 0 0 0 0 0 0 0
0 0 37 131 105 45 3 2 0 0 0 0 0 0 0 0 0 0 0 0 0 0 0 0 0 0 0 0 0 0 0 0 0 0 0 0 0 0 0 0 0 0 0
0 0 0 0 44 59 3 0 0 0 1 0 1 0 0 0 0 0 0 0 0 0 0 0 0 0 0 0 0 0 0 0 0 0 0 0 0 0 0 0 0 0 0
0 0 0 0 1 22 16 0 0 0 0 0 0 0 0 0 0 0 0 0 0 0 0 1 0 0 0 0 0 0 0 0 0 0 0 0 0 0 0 0 0 0 0
0 0 0 0 0 1 18 18 1 0 0 0 0 0 0 0 3 0 0 0 0 0 0 0 0 0 0 0 0 0 0 0 0 0 0 0 0 0 0 0 0 0 0
CIN
-112 -28 -9 0 0 0 0 -22 -27 -2 0 0 0 0 0 0 0 0 -2 -1 -1 -3 -1 -27 -35 -63 0 0 0 0 -1 -5 -2 0 -1 -1 -1 -1 -1 -1 -3 -2 -1
-102 -48 -52 0 -1 0 0 -1 -1 0 -1 0 0 0 -1 0 -2 0 -1 0 0 -2 -2 0 0 0 0 0 0 0 0 -4 -1 0 -2 -1 0 -1 -1 -1 -1 -1 0
-93 -55 -75 0 -1 -1 0 0 -1 0 0 0 -1 -1 0 -1 -1 -1 -2 -2 -1 0 0 0 0 0 0 0 0 0 0 0 0 0 0 0 0 -1 -1 0 -1 -1 -3
-78 -80 -56 -78 0 0 -1 0 -2 0 0 0 0 0 0 0 0 0 -1 -1 -1 -1 0 0 0 0 -1 0 0 0 0 0 0 0 0 0 0 0 -1 -1 0 -1 -1
-64 -57 -62 -3 -4 -2 -1 0 0 0 -1 -1 0 0 0 -1 0 -3 0 -1 -1 -1 -1 0 0 0 0 -14 0 0 0 0 0 0 0 0 0 -1 0 0 -1 0 -1
-79 -53 -128 -2 -4 -2 -1 -1 0 -1 -3 -2 0 0 -2 0 -1 -6 -2 -3 0 -1 0 0 0 0 0 -11 0 0 0 0 0 0 0 0 0 -1 -1 -1 0 0 -1
-67 -83 -150 -2 -1 -3 0 -1 0 -2 -13 -62 -1 -6 -1 -1 -3 -3 0 -1 -1 -1 0 -1 0 0 0 -5 0 0 0 0 0 0 0 0 -1 -1 -1 0 -1 0 -1
-63 -59 -144 -4 -2 -2 -2 0 -1 -2 -2 -4 -2 -3 -3 -3 -4 -4 0 -3 -3 0 -1 -1 0 -3 -1 -2 -10 0 0 0 0 0 0 0 0 0 -1 -1 0 0 0
-36 -45 -130 -119 -5 -4 -3 -2 -1 -1 -2 -4 -2 -6 -10 0 0 -4 -2 -8 -15 -1 -1 -2 0 -4 -1 -2 -3 0 0 0 0 0 0 -1 0 -1 -1 0 0 0 0
-18 -37 -111 -180 -3 -4 -6 -1 -1 -1 -3 0 -3 -14 -13 0 -4 -1 -8 -7 -12 0 -2 0 -8 -8 -7 -12 -31 0 -4 0 0 0 0 -1 -1 -1 -1 0 0 0 0
-26 -27 -68 -167 -38 -2 0 -5 -6 -6 0 0 -6 -13 0 0 -5 -3 -10 -10 -9 -4 -5 -9 -7 -6 -11 -23 -35 -48 0 0 -78 0 0 -1 -1 -1 0 0 -1 -1 0
-62 -30 -60 -165 -209 0 0 -7 -7 -2 0 0 0 0 0 0 -6 -4 -14 -14 -19 -22 0 0 0 -2 -12 -28 -27 -35 -35 0 0 -31 0 -3 0 0 -1 0 0 -1 0
-79 -45 -51 -135 -139 -2 0 -15 -12 0 0 0 0 0 0 0 0 0 0 -3 0 0 0 0 0 0 0 0 -6 -41 -49 -55 0 -3 -20 -4 0 -1 0 0 0 0 0
-69 -72 -62 -99 -120 -10 0 -17 0 0 0 0 0 0 0 0 0 0 0 0 0 0 0 0 0 0 0 0 0 0 -28 -14 0 -7 -18 -6 -1 0 0 -1 0 0 0
-51 -81 -77 -87 -118 -188 0 0 0 0 -7 0 0 0 0 0 0 0 0 0 0 0 0 0 0 0 0 0 0 0 0 0 0 -47 -36 -3 -3 -1 -1 0 0 0 0
-40 -51 -43 -84 -112 -161 0 0 0 0 -8 0 0 0 0 0 0 0 0 0 0 0 0 0 0 0 0 0 0 0 0 0 0 0 0 0 0 -2 0 -2 0 -1 0
-39 -47 -41 -74 -111 -162 -221 0 0 0 0 -1 -37 0 0 0 0 0 0 0 0 0 0 0 0 0 0 0 0 0 0 0 0 0 0 0 0 0 0 0 -1 -1 0
-25 -35 -42 -52 -134 -171 -200 -261 0 0 0 0 0 0 0 0 0 0 0 0 0 0 0 0 0 0 0 0 0 0 0 0 0 0 0 0 0 0 0 0 -1 -1 -1
-58 -34 -23 -36 -145 -185 -189 -215 -257 -44 0 0 0 0 -6 0 0 0 0 0 0 0 -28 0 0 0 0 0 0 0 0 0 0 0 0 0 0 0 0 0 0 0 -1
-74 -58 -27 -27 -107 -175 -147 -32 0 -4 -254 0 0 0 -53 0 0 0 0 0 0 0 0 0 0 0 0 0 0 0 0 0 0 0 0 0 0 0 0 0 0 0 0
-104 -77 -56 -40 -50 0 -108 -120 -68 0 0 0 0 0 0 0 0 0 0 0 0 0 0 0 0 0 0 0 0 0 0 0 0 0 0 0 0 0 0 0 0 0 0
-89 -89 -69 -68 -68 -124 -129 -86 -109 -156 0 0 0 0 0 0 0 0 0 0 -42 -27 0 0 0 0 0 0 0 0 0 0 0 0 0 0 0 0 0 0 0 0 0
0 0 -41 -56 -68 -91 -113 -89 0 -1 0 0 0 0 0 0 0 0 0 0 0 -28 0 0 0 0 0 0 0 0 0 0 0 0 0 0 0 0 0 0 0 0 0
0 0 0 -1 -31 -84 -108 0 0 -17 -15 0 -75 0 0 0 0 0 0 0 0 0 -5 -13 0 0 0 0 0 0 0 0 0 0 0 0 0 0 0 0 0 0 0
0 0 0 0 0 -9 -63 0 0 0 0 0 0 0 0 0 0 0 0 0 0 0 0 -18 0 0 0 0 0 0 0 0 0 0 0 0 0 0 0 0 0 0 0
0 0 0 0 0 0 -12 -41 -21 0 0 0 0 0 0 0 -112 0 0 0 0 0 0 0 0 0 0 0 0 0 0 0 0 0 0 0 0 0 0 0 0 0 0
Wind_Speed
5 18 17 12 8 7 5 5 10 11 7 6 6 7 9 8 7 11 12 19 21 21 16 16 17 18 19 20 18 14 14 14 15 17 19 21 23 24 27 28 29 30 30
14 17 17 13 8 5 8 6 5 8 5 4 4 7 7 6 8 11 18 21 21 20 16 17 18 20 21 20 18 15 14 14 16 17 18 21 23 24 26 28 29 30 30
16 16 16 13 8 6 7 8 7 7 5 3 2 6 7 4 7 11 18 20 21 20 17 17 18 21 20 19 17 14 14 15 16 18 19 20 22 24 26 28 28 30 30
15 15 15 12 8 4 7 8 7 5 4 2 3 7 7 3 7 12 18 19 20 20 18 17 20 21 21 20 18 16 15 16 17 17 18 20 22 24 26 27 28 29 29
12 12 13 13 6 5 5 7 7 4 5 3 4 6 9 3 7 11 18 19 21 22 20 19 20 22 22 20 19 17 17 18 17 18 20 21 22 24 25 27 27 28 28
8 9 14 10 6 5 6 4 6 4 1 2 6 6 4 3 6 13 16 17 19 23 22 18 19 22 22 21 19 18 18 18 18 18 19 21 22 24 25 26 27 28 28
6 7 9 9 8 7 5 4 4 1 1 1 4 5 5 4 5 11 14 16 17 21 21 17 18 21 21 20 19 18 18 19 19 19 20 21 22 23 24 25 26 27 28
7 8 7 9 8 7 5 3 2 2 3 3 1 4 5 4 4 10 13 15 15 16 18 19 17 20 19 19 18 18 18 18 19 18 19 20 21 22 23 24 25 26 27
8 8 7 7 7 7 5 3 2 3 3 5 2 2 3 4 3 8 10 13 14 15 14 15 17 19 19 18 17 16 16 16 17 18 18 19 20 21 22 23 24 25 26
8 9 8 7 7 6 5 4 3 4 4 4 2 2 3 3 3 6 8 10 12 13 13 12 13 16 16 17 17 16 15 15 16 17 17 18 18 20 21 22 23 24 25
9 10 9 8 7 6 7 8 4 3 5 6 4 3 4 3 3 4 6 7 9 11 11 11 12 12 13 14 14 14 13 13 14 15 16 16 17 18 19 20 22 23 24
10 12 11 9 9 7 8 10 8 6 6 8 7 5 3 3 2 3 6 7 7 9 10 11 11 12 11 11 11 12 12 12 13 13 15 15 16 17 18 19 20 21 22
9 14 14 12 11 9 9 11 11 10 7 8 7 6 4 3 2 2 4 5 6 7 8 9 10 10 10 10 9 9 11 10 11 11 12 13 13 14 16 17 19 20 21
13 12 14 13 13 12 11 10 11 11 9 7 7 6 5 5 3 2 3 4 4 5 6 8 8 8 8 8 7 7 8 9 10 10 11 12 11 12 14 15 17 18 19
13 11 13 13 14 14 12 12 11 10 9 9 7 7 6 7 5 4 3 4 5 4 5 6 7 7 7 7 6 6 6 7 8 8 9 10 9 10 11 13 14 16 17
12 14 11 14 15 15 16 14 13 13 9 8 8 8 8 8 7 6 6 6 6 5 6 6 6 6 7 6 5 5 5 6 6 7 8 8 8 8 9 10 11 13 15
13 13 18 15 17 17 16 16 16 14 11 10 8 6 6 7 6 5 6 7 7 6 6 7 8 9 8 7 6 6 6 6 6 7 7 6 7 7 7 8 8 10 12
19 14 17 21 17 18 19 17 17 17 14 13 10 8 6 6 5 5 6 7 6 6 6 7 8 9 8 7 7 7 8 8 10 9 8 7 7 7 7 7 6 8 9
22 21 17 16 18 17 20 19 19 18 17 16 15 11 9 8 7 7 7 7 5 6 8 8 10 9 9 9 10 11 11 11 10 11 10 9 8 7 6 8 8 10 7
25 25 22 18 21 22 20 19 20 21 20 17 16 15 12 12 11 10 10 9 7 7 10 9 10 11 11 10 12 13 15 15 14 12 11 12 10 9 9 8 9 9 9
28 29 26 22 22 20 22 21 21 21 22 22 21 18 16 15 14 14 14 12 11 10 10 10 12 13 14 12 15 19 20 17 15 14 13 12 12 11 11 11 11 10 9
35 34 30 26 22 22 24 22 27 23 23 22 21 22 21 18 16 16 16 15 14 13 13 11 12 15 16 12 17 19 22 22 18 15 13 13 13 14 13 13 12 11 10
26 33 38 33 27 25 26 25 27 30 25 24 23 22 20 19 18 18 18 18 17 15 16 15 14 14 16 15 16 18 21 23 22 19 16 16 16 15 16 15 14 13 12
28 28 30 35 34 26 24 25 25 29 25 25 22 19 21 21 18 18 20 20 20 19 17 17 16 16 16 18 18 18 20 21 24 26 20 19 18 18 18 17 17 15 14
31 31 31 31 32 32 25 25 26 29 31 27 26 26 24 24 23 18 20 23 22 22 21 19 19 19 19 20 20 22 22 23 24 26 30 25 22 21 20 19 18 17 17
35 34 34 33 33 33 32 28 28 29 30 29 29 29 28 21 25 19 20 19 26 25 24 23 22 21 21 21 21 21 22 24 23 24 27 30 31 29 23 21 20 19 19
Wind_Direction
118 120 117 110 105 94 97 85 84 81 70 67 62 58 56 49 37 50 37 63 75 73 57 54 55 54 60 65 62 57 50 45 40 40 38 39 39 38 41 41 41 44 40
117 123 118 112 108 105 97 96 83 78 70 59 56 57 50 40 40 51 73 84 80 76 60 61 60 65 68 65 60 54 47 42 40 37 36 38 36 39 40 43 43 44 39
120 124 120 116 116 113 102 99 93 80 68 58 42 55 55 22 42 51 75 78 81 82 67 68 67 76 73 67 61 51 47 42 40 39 37 33 35 38 39 40 42 43 40
121 127 123 120 123 153 111 104 95 81 71 53 44 62 53 17 44 59 77 74 75 84 81 72 79 83 79 74 66 56 49 44 40 36 31 33 37 40 41 41 42 42 42
125 131 128 123 142 136 129 109 95 82 84 66 53 61 69 347 43 58 77 73 79 88 89 81 82 89 83 77 71 62 55 49 42 38 37 38 39 41 42 41 41 42 41
138 141 132 127 153 147 130 117 96 91 66 63 63 66 25 5 42 75 75 70 74 90 92 78 82 93 87 82 74 66 60 54 46 40 37 41 43 42 42 43 42 42 39
169 166 140 134 142 142 138 120 102 107 270 271 55 61 30 36 33 71 68 67 69 85 85 77 83 96 91 84 76 68 65 59 51 42 41 40 41 42 41 42 42 43 41
179 185 166 140 141 148 151 142 143 255 268 266 3 45 38 28 23 72 71 68 67 70 77 78 75 95 91 84 77 73 67 61 52 42 39 39 42 41 42 42 42 40 38
203 192 188 163 152 147 164 161 214 239 278 263 298 17 12 1 5 74 67 67 67 72 64 66 81 91 93 86 80 74 63 56 53 45 39 38 43 42 42 43 41 38 36
205 210 195 188 172 193 207 223 221 249 269 268 307 348 341 2 31 62 57 55 63 68 60 51 66 85 87 88 85 77 64 55 48 46 41 41 43 42 42 43 39 38 35
218 214 216 207 207 206 216 238 237 244 262 269 282 317 333 332 14 36 44 44 48 57 55 52 56 65 71 81 82 77 62 50 47 45 44 43 43 43 44 43 40 38 37
227 223 225 218 221 198 227 241 242 250 266 268 270 291 315 337 351 36 45 38 33 47 46 53 61 65 65 64 68 73 64 51 42 46 45 48 44 43 44 43 39 40 40
235 238 235 230 229 224 234 241 246 252 263 267 270 276 292 314 330 357 11 21 29 33 35 38 52 57 65 66 61 62 72 60 44 41 41 37 41 44 41 39 39 41 41
247 241 240 236 234 234 238 240 244 253 257 264 267 272 278 286 290 311 346 360 15 21 26 24 41 44 40 46 60 63 66 68 55 44 38 35 39 38 41 42 38 39 41
251 248 242 237 237 237 229 240 245 252 256 261 265 270 275 279 272 280 305 323 328 341 356 6 23 29 27 30 43 63 47 51 59 48 41 35 40 41 42 41 40 41 40
252 253 245 242 240 238 238 236 241 252 256 260 264 267 272 278 272 275 285 297 304 307 320 335 350 1 3 7 12 20 22 12 22 37 31 33 36 40 49 49 45 42 40
252 250 251 246 242 238 238 241 244 247 250 259 258 253 260 275 271 274 286 291 294 294 307 322 328 332 342 343 347 346 349 349 351 358 12 21 18 24 43 49 48 40 39
261 248 246 248 243 239 241 242 247 250 249 252 258 248 239 251 261 269 284 291 290 292 298 308 314 321 326 329 328 327 329 330 328 331 342 352 359 4 9 19 37 34 34
268 264 249 240 244 240 245 247 249 248 250 253 258 251 242 243 245 260 274 283 276 284 295 300 306 310 314 317 317 317 317 317 319 320 321 326 334 340 347 352 0 5 21
268 268 263 251 248 245 246 249 253 254 252 255 252 257 248 256 257 259 273 276 266 273 288 291 295 305 307 307 312 312 311 311 311 311 310 311 315 320 324 329 337 343 351
267 266 267 261 257 251 245 246 252 252 254 257 256 256 255 256 258 261 271 271 270 271 276 282 293 291 299 305 308 307 307 306 304 301 303 303 302 304 309 312 317 323 329
266 265 266 266 263 256 257 253 257 253 257 257 256 256 259 257 255 258 262 265 267 272 275 273 280 291 294 291 302 308 309 308 298 292 292 292 292 298 299 301 303 307 310
286 274 267 266 265 262 261 261 264 260 262 260 262 260 258 258 256 255 260 265 265 265 269 270 272 275 284 285 290 302 309 307 316 314 290 289 290 290 294 295 296 296 298
289 289 283 272 268 263 260 261 259 260 262 263 262 258 260 255 251 250 258 262 264 267 266 269 271 272 281 282 288 282 293 307 310 311 315 304 290 288 290 291 291 291 290
288 287 287 283 275 269 261 258 260 262 266 270 268 264 268 264 262 249 254 262 263 265 268 266 269 270 273 283 280 292 285 289 296 300 304 308 306 295 289 287 286 286 284
287 286 286 283 279 274 268 264 260 263 265 267 268 269 268 267 264 253 254 251 265 266 267 267 266 264 269 272 278 280 282 292 291 289 293 298 300 303 296 290 285 283 283